owner,sensor,date,latitude,longitude,vertical_datum,sea_water_practical_salinity,qcFlag 
LUMCON,ioos:station:LUMCON:103:1,2011-02-01T01:00:00Z,30.1889,-90.1683,-9999.0,2.771,1111122 
LUMCON,ioos:station:LUMCON:103:1,2011-02-01T02:00:00Z,30.1889,-90.1683,-9999.0,2.806,1111122 
LUMCON,ioos:station:LUMCON:103:1,2011-02-01T03:00:00Z,30.1889,-90.1683,-9999.0,2.805,1111122 
LUMCON,ioos:station:LUMCON:103:1,2011-02-01T04:00:00Z,30.1889,-90.1683,-9999.0,2.818,1111122 
LUMCON,ioos:station:LUMCON:103:1,2011-02-01T05:00:00Z,30.1889,-90.1683,-9999.0,2.788,1111122 
LUMCON,ioos:station:LUMCON:103:1,2011-02-01T06:00:00Z,30.1889,-90.1683,-9999.0,2.756,1111122 
LUMCON,ioos:station:LUMCON:103:1,2011-02-01T07:00:00Z,30.1889,-90.1683,-9999.0,2.738,1111122 
LUMCON,ioos:station:LUMCON:103:1,2011-02-01T08:00:00Z,30.1889,-90.1683,-9999.0,2.774,1111122 
LUMCON,ioos:station:LUMCON:103:1,2011-02-01T09:00:00Z,30.1889,-90.1683,-9999.0,2.785,1111122 
LUMCON,ioos:station:LUMCON:103:1,2011-02-01T10:00:00Z,30.1889,-90.1683,-9999.0,2.734,1111122 
LUMCON,ioos:station:LUMCON:103:1,2011-02-01T11:00:00Z,30.1889,-90.1683,-9999.0,2.714,1111122 
LUMCON,ioos:station:LUMCON:103:1,2011-02-01T12:00:00Z,30.1889,-90.1683,-9999.0,2.711,1111122 
LUMCON,ioos:station:LUMCON:103:1,2011-02-01T13:00:00Z,30.1889,-90.1683,-9999.0,2.689,1111122 
LUMCON,ioos:station:LUMCON:103:1,2011-02-01T14:00:00Z,30.1889,-90.1683,-9999.0,2.68,1111122 
LUMCON,ioos:station:LUMCON:103:1,2011-02-01T15:00:00Z,30.1889,-90.1683,-9999.0,2.681,1111122 
LUMCON,ioos:station:LUMCON:103:1,2011-02-01T16:00:00Z,30.1889,-90.1683,-9999.0,2.732,1111122 
LUMCON,ioos:station:LUMCON:103:1,2011-02-01T17:00:00Z,30.1889,-90.1683,-9999.0,2.727,1111122 
LUMCON,ioos:station:LUMCON:103:1,2011-02-01T18:00:00Z,30.1889,-90.1683,-9999.0,2.64,1111122 
LUMCON,ioos:station:LUMCON:103:1,2011-02-01T19:00:00Z,30.1889,-90.1683,-9999.0,2.556,1111122 
LUMCON,ioos:station:LUMCON:103:1,2011-02-01T20:00:00Z,30.1889,-90.1683,-9999.0,2.486,1111122 
LUMCON,ioos:station:LUMCON:103:1,2011-02-01T21:00:00Z,30.1889,-90.1683,-9999.0,2.422,1111122 
LUMCON,ioos:station:LUMCON:103:1,2011-02-01T22:00:00Z,30.1889,-90.1683,-9999.0,2.413,1111122 
LUMCON,ioos:station:LUMCON:103:1,2011-02-01T23:00:00Z,30.1889,-90.1683,-9999.0,2.428,1111122 
LUMCON,ioos:station:LUMCON:103:1,2011-02-01T24:00:00Z,30.1889,-90.1683,-9999.0,2.438,1111122 
LUMCON,ioos:station:LUMCON:103:1,2011-02-02T01:00:00Z,30.1889,-90.1683,-9999.0,2.443,1111122 
LUMCON,ioos:station:LUMCON:103:1,2011-02-02T02:00:00Z,30.1889,-90.1683,-9999.0,2.432,1111122 
LUMCON,ioos:station:LUMCON:103:1,2011-02-02T03:00:00Z,30.1889,-90.1683,-9999.0,2.45,1111122 
LUMCON,ioos:station:LUMCON:103:1,2011-02-02T04:00:00Z,30.1889,-90.1683,-9999.0,2.444,1111122 
LUMCON,ioos:station:LUMCON:103:1,2011-02-02T05:00:00Z,30.1889,-90.1683,-9999.0,2.273,1111122 
LUMCON,ioos:station:LUMCON:103:1,2011-02-02T06:00:00Z,30.1889,-90.1683,-9999.0,2.141,1111122 
LUMCON,ioos:station:LUMCON:103:1,2011-02-02T07:00:00Z,30.1889,-90.1683,-9999.0,2.227,1111122 
LUMCON,ioos:station:LUMCON:103:1,2011-02-02T08:00:00Z,30.1889,-90.1683,-9999.0,2.112,1111122 
LUMCON,ioos:station:LUMCON:103:1,2011-02-02T09:00:00Z,30.1889,-90.1683,-9999.0,1.881,1111122 
LUMCON,ioos:station:LUMCON:103:1,2011-02-02T10:00:00Z,30.1889,-90.1683,-9999.0,1.794,1111122 
LUMCON,ioos:station:LUMCON:103:1,2011-02-02T11:00:00Z,30.1889,-90.1683,-9999.0,1.702,1111122 
LUMCON,ioos:station:LUMCON:103:1,2011-02-02T12:00:00Z,30.1889,-90.1683,-9999.0,1.792,1111122 
LUMCON,ioos:station:LUMCON:103:1,2011-02-02T13:00:00Z,30.1889,-90.1683,-9999.0,1.784,1111122 
LUMCON,ioos:station:LUMCON:103:1,2011-02-02T14:00:00Z,30.1889,-90.1683,-9999.0,1.802,1111122 
LUMCON,ioos:station:LUMCON:103:1,2011-02-02T15:00:00Z,30.1889,-90.1683,-9999.0,1.96,1111122 
LUMCON,ioos:station:LUMCON:103:1,2011-02-02T16:00:00Z,30.1889,-90.1683,-9999.0,2.133,1111122 
LUMCON,ioos:station:LUMCON:103:1,2011-02-02T17:00:00Z,30.1889,-90.1683,-9999.0,2.264,1111122 
LUMCON,ioos:station:LUMCON:103:1,2011-02-02T18:00:00Z,30.1889,-90.1683,-9999.0,2.417,1111122 
LUMCON,ioos:station:LUMCON:103:1,2011-02-02T19:00:00Z,30.1889,-90.1683,-9999.0,2.528,1111122 
LUMCON,ioos:station:LUMCON:103:1,2011-02-02T20:00:00Z,30.1889,-90.1683,-9999.0,2.398,1111122 
LUMCON,ioos:station:LUMCON:103:1,2011-02-02T21:00:00Z,30.1889,-90.1683,-9999.0,2.307,1111122 
LUMCON,ioos:station:LUMCON:103:1,2011-02-02T22:00:00Z,30.1889,-90.1683,-9999.0,2.318,1111122 
LUMCON,ioos:station:LUMCON:103:1,2011-02-02T23:00:00Z,30.1889,-90.1683,-9999.0,2.354,1111122 
LUMCON,ioos:station:LUMCON:103:1,2011-02-02T24:00:00Z,30.1889,-90.1683,-9999.0,2.318,1111122 
LUMCON,ioos:station:LUMCON:103:1,2011-02-03T01:00:00Z,30.1889,-90.1683,-9999.0,2.289,1111122 
LUMCON,ioos:station:LUMCON:103:1,2011-02-03T02:00:00Z,30.1889,-90.1683,-9999.0,2.283,1111122 
LUMCON,ioos:station:LUMCON:103:1,2011-02-03T03:00:00Z,30.1889,-90.1683,-9999.0,2.268,1111122 
LUMCON,ioos:station:LUMCON:103:1,2011-02-03T04:00:00Z,30.1889,-90.1683,-9999.0,2.255,1111122 
LUMCON,ioos:station:LUMCON:103:1,2011-02-03T05:00:00Z,30.1889,-90.1683,-9999.0,2.269,1111122 
LUMCON,ioos:station:LUMCON:103:1,2011-02-03T06:00:00Z,30.1889,-90.1683,-9999.0,2.265,1111122 
LUMCON,ioos:station:LUMCON:103:1,2011-02-03T07:00:00Z,30.1889,-90.1683,-9999.0,2.273,1111122 
LUMCON,ioos:station:LUMCON:103:1,2011-02-03T08:00:00Z,30.1889,-90.1683,-9999.0,2.281,1111122 
LUMCON,ioos:station:LUMCON:103:1,2011-02-03T09:00:00Z,30.1889,-90.1683,-9999.0,2.18,1111122 
LUMCON,ioos:station:LUMCON:103:1,2011-02-03T10:00:00Z,30.1889,-90.1683,-9999.0,2.031,1111122 
LUMCON,ioos:station:LUMCON:103:1,2011-02-03T11:00:00Z,30.1889,-90.1683,-9999.0,2.331,1111122 
LUMCON,ioos:station:LUMCON:103:1,2011-02-03T12:00:00Z,30.1889,-90.1683,-9999.0,2.27,1111122 
LUMCON,ioos:station:LUMCON:103:1,2011-02-03T13:00:00Z,30.1889,-90.1683,-9999.0,2.459,1111122 
LUMCON,ioos:station:LUMCON:103:1,2011-02-03T14:00:00Z,30.1889,-90.1683,-9999.0,2.502,1111122 
LUMCON,ioos:station:LUMCON:103:1,2011-02-03T15:00:00Z,30.1889,-90.1683,-9999.0,2.709,1111122 
LUMCON,ioos:station:LUMCON:103:1,2011-02-03T16:00:00Z,30.1889,-90.1683,-9999.0,2.799,1111122 
LUMCON,ioos:station:LUMCON:103:1,2011-02-03T17:00:00Z,30.1889,-90.1683,-9999.0,2.751,1111122 
LUMCON,ioos:station:LUMCON:103:1,2011-02-03T18:00:00Z,30.1889,-90.1683,-9999.0,2.765,1111122 
LUMCON,ioos:station:LUMCON:103:1,2011-02-03T19:00:00Z,30.1889,-90.1683,-9999.0,2.78,1111122 
LUMCON,ioos:station:LUMCON:103:1,2011-02-03T20:00:00Z,30.1889,-90.1683,-9999.0,2.821,1111122 
LUMCON,ioos:station:LUMCON:103:1,2011-02-03T21:00:00Z,30.1889,-90.1683,-9999.0,2.746,1111122 
LUMCON,ioos:station:LUMCON:103:1,2011-02-03T22:00:00Z,30.1889,-90.1683,-9999.0,2.478,1111122 
LUMCON,ioos:station:LUMCON:103:1,2011-02-03T23:00:00Z,30.1889,-90.1683,-9999.0,2.608,1111122 
LUMCON,ioos:station:LUMCON:103:1,2011-02-03T24:00:00Z,30.1889,-90.1683,-9999.0,2.548,1111122 
LUMCON,ioos:station:LUMCON:103:1,2011-02-04T01:00:00Z,30.1889,-90.1683,-9999.0,2.419,1111122 
LUMCON,ioos:station:LUMCON:103:1,2011-02-04T02:00:00Z,30.1889,-90.1683,-9999.0,2.391,1111122 
LUMCON,ioos:station:LUMCON:103:1,2011-02-04T03:00:00Z,30.1889,-90.1683,-9999.0,2.448,1111122 
LUMCON,ioos:station:LUMCON:103:1,2011-02-04T04:00:00Z,30.1889,-90.1683,-9999.0,2.463,1111122 
LUMCON,ioos:station:LUMCON:103:1,2011-02-04T05:00:00Z,30.1889,-90.1683,-9999.0,2.463,1111122 
LUMCON,ioos:station:LUMCON:103:1,2011-02-04T06:00:00Z,30.1889,-90.1683,-9999.0,2.46,1111122 
LUMCON,ioos:station:LUMCON:103:1,2011-02-04T07:00:00Z,30.1889,-90.1683,-9999.0,2.465,1111122 
LUMCON,ioos:station:LUMCON:103:1,2011-02-04T08:00:00Z,30.1889,-90.1683,-9999.0,2.453,1111122 
LUMCON,ioos:station:LUMCON:103:1,2011-02-04T09:00:00Z,30.1889,-90.1683,-9999.0,2.442,1111122 
LUMCON,ioos:station:LUMCON:103:1,2011-02-04T10:00:00Z,30.1889,-90.1683,-9999.0,2.43,1111122 
LUMCON,ioos:station:LUMCON:103:1,2011-02-04T11:00:00Z,30.1889,-90.1683,-9999.0,2.43,1111122 
LUMCON,ioos:station:LUMCON:103:1,2011-02-04T12:00:00Z,30.1889,-90.1683,-9999.0,2.429,1111122 
LUMCON,ioos:station:LUMCON:103:1,2011-02-04T13:00:00Z,30.1889,-90.1683,-9999.0,2.486,1111122 
LUMCON,ioos:station:LUMCON:103:1,2011-02-04T14:00:00Z,30.1889,-90.1683,-9999.0,2.484,1111122 
LUMCON,ioos:station:LUMCON:103:1,2011-02-04T15:00:00Z,30.1889,-90.1683,-9999.0,2.472,1111122 
LUMCON,ioos:station:LUMCON:103:1,2011-02-04T16:00:00Z,30.1889,-90.1683,-9999.0,2.453,1111122 
LUMCON,ioos:station:LUMCON:103:1,2011-02-04T17:00:00Z,30.1889,-90.1683,-9999.0,2.466,1111122 
LUMCON,ioos:station:LUMCON:103:1,2011-02-04T18:00:00Z,30.1889,-90.1683,-9999.0,2.255,1111122 
LUMCON,ioos:station:LUMCON:103:1,2011-02-04T19:00:00Z,30.1889,-90.1683,-9999.0,2.16,1111122 
LUMCON,ioos:station:LUMCON:103:1,2011-02-04T20:00:00Z,30.1889,-90.1683,-9999.0,2.202,1111122 
LUMCON,ioos:station:LUMCON:103:1,2011-02-04T21:00:00Z,30.1889,-90.1683,-9999.0,2.082,1111122 
LUMCON,ioos:station:LUMCON:103:1,2011-02-04T22:00:00Z,30.1889,-90.1683,-9999.0,1.865,1111122 
LUMCON,ioos:station:LUMCON:103:1,2011-02-04T23:00:00Z,30.1889,-90.1683,-9999.0,1.908,1111122 
LUMCON,ioos:station:LUMCON:103:1,2011-02-04T24:00:00Z,30.1889,-90.1683,-9999.0,1.652,1111122 
LUMCON,ioos:station:LUMCON:103:1,2011-02-05T01:00:00Z,30.1889,-90.1683,-9999.0,1.474,1111122 
LUMCON,ioos:station:LUMCON:103:1,2011-02-05T02:00:00Z,30.1889,-90.1683,-9999.0,1.401,1111122 
LUMCON,ioos:station:LUMCON:103:1,2011-02-05T03:00:00Z,30.1889,-90.1683,-9999.0,1.291,1111122 
LUMCON,ioos:station:LUMCON:103:1,2011-02-05T04:00:00Z,30.1889,-90.1683,-9999.0,1.265,1111122 
LUMCON,ioos:station:LUMCON:103:1,2011-02-05T05:00:00Z,30.1889,-90.1683,-9999.0,1.222,1111122 
LUMCON,ioos:station:LUMCON:103:1,2011-02-05T06:00:00Z,30.1889,-90.1683,-9999.0,1.222,1111122 
LUMCON,ioos:station:LUMCON:103:1,2011-02-05T07:00:00Z,30.1889,-90.1683,-9999.0,1.229,1111122 
LUMCON,ioos:station:LUMCON:103:1,2011-02-05T08:00:00Z,30.1889,-90.1683,-9999.0,1.208,1111122 
LUMCON,ioos:station:LUMCON:103:1,2011-02-05T09:00:00Z,30.1889,-90.1683,-9999.0,1.302,1111122 
LUMCON,ioos:station:LUMCON:103:1,2011-02-05T10:00:00Z,30.1889,-90.1683,-9999.0,1.503,1111122 
LUMCON,ioos:station:LUMCON:103:1,2011-02-05T11:00:00Z,30.1889,-90.1683,-9999.0,1.58,1111122 
LUMCON,ioos:station:LUMCON:103:1,2011-02-05T12:00:00Z,30.1889,-90.1683,-9999.0,1.56,1111122 
LUMCON,ioos:station:LUMCON:103:1,2011-02-05T13:00:00Z,30.1889,-90.1683,-9999.0,1.445,1111122 
LUMCON,ioos:station:LUMCON:103:1,2011-02-05T14:00:00Z,30.1889,-90.1683,-9999.0,1.384,1111122 
LUMCON,ioos:station:LUMCON:103:1,2011-02-05T15:00:00Z,30.1889,-90.1683,-9999.0,1.339,1111122 
LUMCON,ioos:station:LUMCON:103:1,2011-02-05T16:00:00Z,30.1889,-90.1683,-9999.0,1.316,1111122 
LUMCON,ioos:station:LUMCON:103:1,2011-02-05T17:00:00Z,30.1889,-90.1683,-9999.0,1.301,1111122 
LUMCON,ioos:station:LUMCON:103:1,2011-02-05T18:00:00Z,30.1889,-90.1683,-9999.0,1.308,1111122 
LUMCON,ioos:station:LUMCON:103:1,2011-02-05T19:00:00Z,30.1889,-90.1683,-9999.0,1.313,1111122 
LUMCON,ioos:station:LUMCON:103:1,2011-02-05T20:00:00Z,30.1889,-90.1683,-9999.0,1.336,1111122 
LUMCON,ioos:station:LUMCON:103:1,2011-02-05T21:00:00Z,30.1889,-90.1683,-9999.0,1.384,1111122 
LUMCON,ioos:station:LUMCON:103:1,2011-02-05T22:00:00Z,30.1889,-90.1683,-9999.0,1.431,1111122 
LUMCON,ioos:station:LUMCON:103:1,2011-02-05T23:00:00Z,30.1889,-90.1683,-9999.0,1.459,1111122 
LUMCON,ioos:station:LUMCON:103:1,2011-02-05T24:00:00Z,30.1889,-90.1683,-9999.0,1.481,1111122 
LUMCON,ioos:station:LUMCON:103:1,2011-02-06T01:00:00Z,30.1889,-90.1683,-9999.0,1.523,1111122 
LUMCON,ioos:station:LUMCON:103:1,2011-02-06T02:00:00Z,30.1889,-90.1683,-9999.0,1.615,1111122 
LUMCON,ioos:station:LUMCON:103:1,2011-02-06T03:00:00Z,30.1889,-90.1683,-9999.0,1.64,1111122 
LUMCON,ioos:station:LUMCON:103:1,2011-02-06T04:00:00Z,30.1889,-90.1683,-9999.0,1.656,1111122 
LUMCON,ioos:station:LUMCON:103:1,2011-02-06T05:00:00Z,30.1889,-90.1683,-9999.0,1.643,1111122 
LUMCON,ioos:station:LUMCON:103:1,2011-02-06T06:00:00Z,30.1889,-90.1683,-9999.0,1.641,1111122 
LUMCON,ioos:station:LUMCON:103:1,2011-02-06T07:00:00Z,30.1889,-90.1683,-9999.0,1.646,1111122 
LUMCON,ioos:station:LUMCON:103:1,2011-02-06T08:00:00Z,30.1889,-90.1683,-9999.0,1.652,1111122 
LUMCON,ioos:station:LUMCON:103:1,2011-02-06T09:00:00Z,30.1889,-90.1683,-9999.0,1.646,1111122 
LUMCON,ioos:station:LUMCON:103:1,2011-02-06T10:00:00Z,30.1889,-90.1683,-9999.0,1.603,1111122 
LUMCON,ioos:station:LUMCON:103:1,2011-02-06T11:00:00Z,30.1889,-90.1683,-9999.0,1.629,1111122 
LUMCON,ioos:station:LUMCON:103:1,2011-02-06T12:00:00Z,30.1889,-90.1683,-9999.0,1.604,1111122 
LUMCON,ioos:station:LUMCON:103:1,2011-02-06T13:00:00Z,30.1889,-90.1683,-9999.0,1.629,1111122 
LUMCON,ioos:station:LUMCON:103:1,2011-02-06T14:00:00Z,30.1889,-90.1683,-9999.0,1.648,1111122 
LUMCON,ioos:station:LUMCON:103:1,2011-02-06T15:00:00Z,30.1889,-90.1683,-9999.0,1.642,1111122 
LUMCON,ioos:station:LUMCON:103:1,2011-02-06T16:00:00Z,30.1889,-90.1683,-9999.0,1.521,1111122 
LUMCON,ioos:station:LUMCON:103:1,2011-02-06T17:00:00Z,30.1889,-90.1683,-9999.0,1.528,1111122 
LUMCON,ioos:station:LUMCON:103:1,2011-02-06T18:00:00Z,30.1889,-90.1683,-9999.0,1.532,1111122 
LUMCON,ioos:station:LUMCON:103:1,2011-02-06T19:00:00Z,30.1889,-90.1683,-9999.0,1.536,1111122 
LUMCON,ioos:station:LUMCON:103:1,2011-02-06T20:00:00Z,30.1889,-90.1683,-9999.0,1.558,1111122 
LUMCON,ioos:station:LUMCON:103:1,2011-02-06T21:00:00Z,30.1889,-90.1683,-9999.0,1.575,1111122 
LUMCON,ioos:station:LUMCON:103:1,2011-02-06T22:00:00Z,30.1889,-90.1683,-9999.0,1.554,1111122 
LUMCON,ioos:station:LUMCON:103:1,2011-02-06T23:00:00Z,30.1889,-90.1683,-9999.0,1.583,1111122 
LUMCON,ioos:station:LUMCON:103:1,2011-02-06T24:00:00Z,30.1889,-90.1683,-9999.0,1.597,1111122 
LUMCON,ioos:station:LUMCON:103:1,2011-02-07T01:00:00Z,30.1889,-90.1683,-9999.0,1.59,1111122 
LUMCON,ioos:station:LUMCON:103:1,2011-02-07T02:00:00Z,30.1889,-90.1683,-9999.0,1.569,1111122 
LUMCON,ioos:station:LUMCON:103:1,2011-02-07T03:00:00Z,30.1889,-90.1683,-9999.0,1.593,1111122 
LUMCON,ioos:station:LUMCON:103:1,2011-02-07T04:00:00Z,30.1889,-90.1683,-9999.0,1.575,1111122 
LUMCON,ioos:station:LUMCON:103:1,2011-02-07T05:00:00Z,30.1889,-90.1683,-9999.0,1.563,1111122 
LUMCON,ioos:station:LUMCON:103:1,2011-02-07T06:00:00Z,30.1889,-90.1683,-9999.0,1.591,1111122 
LUMCON,ioos:station:LUMCON:103:1,2011-02-07T07:00:00Z,30.1889,-90.1683,-9999.0,1.581,1111122 
LUMCON,ioos:station:LUMCON:103:1,2011-02-07T08:00:00Z,30.1889,-90.1683,-9999.0,1.581,1111122 
LUMCON,ioos:station:LUMCON:103:1,2011-02-07T09:00:00Z,30.1889,-90.1683,-9999.0,1.55,1111122 
LUMCON,ioos:station:LUMCON:103:1,2011-02-07T10:00:00Z,30.1889,-90.1683,-9999.0,1.424,1111122 
LUMCON,ioos:station:LUMCON:103:1,2011-02-07T11:00:00Z,30.1889,-90.1683,-9999.0,1.422,1111122 
LUMCON,ioos:station:LUMCON:103:1,2011-02-07T12:00:00Z,30.1889,-90.1683,-9999.0,1.388,1111122 
LUMCON,ioos:station:LUMCON:103:1,2011-02-07T13:00:00Z,30.1889,-90.1683,-9999.0,1.346,1111122 
LUMCON,ioos:station:LUMCON:103:1,2011-02-07T14:00:00Z,30.1889,-90.1683,-9999.0,1.271,1111122 
LUMCON,ioos:station:LUMCON:103:1,2011-02-07T15:00:00Z,30.1889,-90.1683,-9999.0,1.183,1111122 
LUMCON,ioos:station:LUMCON:103:1,2011-02-07T16:00:00Z,30.1889,-90.1683,-9999.0,1.155,1111122 
LUMCON,ioos:station:LUMCON:103:1,2011-02-07T17:00:00Z,30.1889,-90.1683,-9999.0,1.134,1111122 
LUMCON,ioos:station:LUMCON:103:1,2011-02-07T18:00:00Z,30.1889,-90.1683,-9999.0,1.123,1111122 
LUMCON,ioos:station:LUMCON:103:1,2011-02-07T19:00:00Z,30.1889,-90.1683,-9999.0,1.168,1111122 
LUMCON,ioos:station:LUMCON:103:1,2011-02-07T20:00:00Z,30.1889,-90.1683,-9999.0,1.131,1111122 
LUMCON,ioos:station:LUMCON:103:1,2011-02-07T21:00:00Z,30.1889,-90.1683,-9999.0,1.128,1111122 
LUMCON,ioos:station:LUMCON:103:1,2011-02-07T22:00:00Z,30.1889,-90.1683,-9999.0,1.153,1111122 
LUMCON,ioos:station:LUMCON:103:1,2011-02-07T23:00:00Z,30.1889,-90.1683,-9999.0,1.159,1111122 
LUMCON,ioos:station:LUMCON:103:1,2011-02-07T24:00:00Z,30.1889,-90.1683,-9999.0,1.151,1111122 
LUMCON,ioos:station:LUMCON:103:1,2011-02-08T01:00:00Z,30.1889,-90.1683,-9999.0,1.132,1111122 
LUMCON,ioos:station:LUMCON:103:1,2011-02-08T02:00:00Z,30.1889,-90.1683,-9999.0,1.12,1111122 
LUMCON,ioos:station:LUMCON:103:1,2011-02-08T03:00:00Z,30.1889,-90.1683,-9999.0,1.117,1111122 
LUMCON,ioos:station:LUMCON:103:1,2011-02-08T04:00:00Z,30.1889,-90.1683,-9999.0,1.117,1111122 
LUMCON,ioos:station:LUMCON:103:1,2011-02-08T05:00:00Z,30.1889,-90.1683,-9999.0,1.117,1111122 
LUMCON,ioos:station:LUMCON:103:1,2011-02-08T06:00:00Z,30.1889,-90.1683,-9999.0,1.12,1111122 
LUMCON,ioos:station:LUMCON:103:1,2011-02-08T07:00:00Z,30.1889,-90.1683,-9999.0,1.12,1111122 
LUMCON,ioos:station:LUMCON:103:1,2011-02-08T08:00:00Z,30.1889,-90.1683,-9999.0,1.12,1111122 
LUMCON,ioos:station:LUMCON:103:1,2011-02-08T09:00:00Z,30.1889,-90.1683,-9999.0,1.12,1111122 
LUMCON,ioos:station:LUMCON:103:1,2011-02-08T10:00:00Z,30.1889,-90.1683,-9999.0,1.12,1111122 
LUMCON,ioos:station:LUMCON:103:1,2011-02-08T11:00:00Z,30.1889,-90.1683,-9999.0,1.12,1111122 
LUMCON,ioos:station:LUMCON:103:1,2011-02-08T12:00:00Z,30.1889,-90.1683,-9999.0,1.122,1111122 
LUMCON,ioos:station:LUMCON:103:1,2011-02-08T13:00:00Z,30.1889,-90.1683,-9999.0,1.13,1111122 
LUMCON,ioos:station:LUMCON:103:1,2011-02-08T14:00:00Z,30.1889,-90.1683,-9999.0,1.13,1111122 
LUMCON,ioos:station:LUMCON:103:1,2011-02-08T15:00:00Z,30.1889,-90.1683,-9999.0,1.13,1111122 
LUMCON,ioos:station:LUMCON:103:1,2011-02-08T16:00:00Z,30.1889,-90.1683,-9999.0,1.132,1111122 
LUMCON,ioos:station:LUMCON:103:1,2011-02-08T17:00:00Z,30.1889,-90.1683,-9999.0,1.14,1111122 
LUMCON,ioos:station:LUMCON:103:1,2011-02-08T18:00:00Z,30.1889,-90.1683,-9999.0,1.114,1111122 
LUMCON,ioos:station:LUMCON:103:1,2011-02-08T19:00:00Z,30.1889,-90.1683,-9999.0,1.097,1111122 
LUMCON,ioos:station:LUMCON:103:1,2011-02-08T20:00:00Z,30.1889,-90.1683,-9999.0,1.077,1111122 
LUMCON,ioos:station:LUMCON:103:1,2011-02-08T21:00:00Z,30.1889,-90.1683,-9999.0,0.857,1111122 
LUMCON,ioos:station:LUMCON:103:1,2011-02-08T22:00:00Z,30.1889,-90.1683,-9999.0,0.825,1111122 
LUMCON,ioos:station:LUMCON:103:1,2011-02-08T23:00:00Z,30.1889,-90.1683,-9999.0,0.864,1111122 
LUMCON,ioos:station:LUMCON:103:1,2011-02-08T24:00:00Z,30.1889,-90.1683,-9999.0,1.026,1111122 
LUMCON,ioos:station:LUMCON:103:1,2011-02-09T01:00:00Z,30.1889,-90.1683,-9999.0,1.138,1111122 
LUMCON,ioos:station:LUMCON:103:1,2011-02-09T02:00:00Z,30.1889,-90.1683,-9999.0,1.189,1111122 
LUMCON,ioos:station:LUMCON:103:1,2011-02-09T03:00:00Z,30.1889,-90.1683,-9999.0,1.234,1111122 
LUMCON,ioos:station:LUMCON:103:1,2011-02-09T04:00:00Z,30.1889,-90.1683,-9999.0,1.222,1111122 
LUMCON,ioos:station:LUMCON:103:1,2011-02-09T05:00:00Z,30.1889,-90.1683,-9999.0,1.294,1111122 
LUMCON,ioos:station:LUMCON:103:1,2011-02-09T06:00:00Z,30.1889,-90.1683,-9999.0,1.317,1111122 
LUMCON,ioos:station:LUMCON:103:1,2011-02-09T07:00:00Z,30.1889,-90.1683,-9999.0,1.316,1111122 
LUMCON,ioos:station:LUMCON:103:1,2011-02-09T08:00:00Z,30.1889,-90.1683,-9999.0,1.347,1111122 
LUMCON,ioos:station:LUMCON:103:1,2011-02-09T09:00:00Z,30.1889,-90.1683,-9999.0,1.408,1111122 
LUMCON,ioos:station:LUMCON:103:1,2011-02-09T10:00:00Z,30.1889,-90.1683,-9999.0,1.419,1111122 
LUMCON,ioos:station:LUMCON:103:1,2011-02-09T11:00:00Z,30.1889,-90.1683,-9999.0,1.445,1111122 
LUMCON,ioos:station:LUMCON:103:1,2011-02-09T12:00:00Z,30.1889,-90.1683,-9999.0,1.497,1111122 
LUMCON,ioos:station:LUMCON:103:1,2011-02-09T13:00:00Z,30.1889,-90.1683,-9999.0,1.522,1111122 
LUMCON,ioos:station:LUMCON:103:1,2011-02-09T14:00:00Z,30.1889,-90.1683,-9999.0,1.499,1111122 
LUMCON,ioos:station:LUMCON:103:1,2011-02-09T15:00:00Z,30.1889,-90.1683,-9999.0,1.486,1111122 
LUMCON,ioos:station:LUMCON:103:1,2011-02-09T16:00:00Z,30.1889,-90.1683,-9999.0,1.493,1111122 
LUMCON,ioos:station:LUMCON:103:1,2011-02-09T17:00:00Z,30.1889,-90.1683,-9999.0,1.463,1111122 
LUMCON,ioos:station:LUMCON:103:1,2011-02-09T18:00:00Z,30.1889,-90.1683,-9999.0,1.45,1111122 
LUMCON,ioos:station:LUMCON:103:1,2011-02-09T19:00:00Z,30.1889,-90.1683,-9999.0,1.452,1111122 
LUMCON,ioos:station:LUMCON:103:1,2011-02-09T20:00:00Z,30.1889,-90.1683,-9999.0,1.439,1111122 
LUMCON,ioos:station:LUMCON:103:1,2011-02-09T21:00:00Z,30.1889,-90.1683,-9999.0,1.411,1111122 
LUMCON,ioos:station:LUMCON:103:1,2011-02-09T22:00:00Z,30.1889,-90.1683,-9999.0,1.41,1111122 
LUMCON,ioos:station:LUMCON:103:1,2011-02-09T23:00:00Z,30.1889,-90.1683,-9999.0,1.38,1111122 
LUMCON,ioos:station:LUMCON:103:1,2011-02-09T24:00:00Z,30.1889,-90.1683,-9999.0,1.187,1111122 
LUMCON,ioos:station:LUMCON:103:1,2011-02-10T01:00:00Z,30.1889,-90.1683,-9999.0,1.125,1111122 
LUMCON,ioos:station:LUMCON:103:1,2011-02-10T02:00:00Z,30.1889,-90.1683,-9999.0,1.251,1111122 
LUMCON,ioos:station:LUMCON:103:1,2011-02-10T03:00:00Z,30.1889,-90.1683,-9999.0,1.354,1111122 
LUMCON,ioos:station:LUMCON:103:1,2011-02-10T04:00:00Z,30.1889,-90.1683,-9999.0,1.465,1111122 
LUMCON,ioos:station:LUMCON:103:1,2011-02-10T05:00:00Z,30.1889,-90.1683,-9999.0,1.545,1111122 
LUMCON,ioos:station:LUMCON:103:1,2011-02-10T06:00:00Z,30.1889,-90.1683,-9999.0,1.526,1111122 
LUMCON,ioos:station:LUMCON:103:1,2011-02-10T07:00:00Z,30.1889,-90.1683,-9999.0,1.486,1111122 
LUMCON,ioos:station:LUMCON:103:1,2011-02-10T08:00:00Z,30.1889,-90.1683,-9999.0,1.472,1111122 
LUMCON,ioos:station:LUMCON:103:1,2011-02-10T09:00:00Z,30.1889,-90.1683,-9999.0,1.497,1111122 
LUMCON,ioos:station:LUMCON:103:1,2011-02-10T10:00:00Z,30.1889,-90.1683,-9999.0,1.503,1111122 
LUMCON,ioos:station:LUMCON:103:1,2011-02-10T11:00:00Z,30.1889,-90.1683,-9999.0,1.467,1111122 
LUMCON,ioos:station:LUMCON:103:1,2011-02-10T12:00:00Z,30.1889,-90.1683,-9999.0,1.418,1111122 
LUMCON,ioos:station:LUMCON:103:1,2011-02-10T13:00:00Z,30.1889,-90.1683,-9999.0,1.446,1111122 
LUMCON,ioos:station:LUMCON:103:1,2011-02-10T14:00:00Z,30.1889,-90.1683,-9999.0,1.586,1111122 
LUMCON,ioos:station:LUMCON:103:1,2011-02-10T15:00:00Z,30.1889,-90.1683,-9999.0,1.545,1111122 
LUMCON,ioos:station:LUMCON:103:1,2011-02-10T16:00:00Z,30.1889,-90.1683,-9999.0,1.573,1111122 
LUMCON,ioos:station:LUMCON:103:1,2011-02-10T17:00:00Z,30.1889,-90.1683,-9999.0,1.374,1111122 
LUMCON,ioos:station:LUMCON:103:1,2011-02-10T18:00:00Z,30.1889,-90.1683,-9999.0,1.369,1111122 
LUMCON,ioos:station:LUMCON:103:1,2011-02-10T19:00:00Z,30.1889,-90.1683,-9999.0,1.367,1111122 
LUMCON,ioos:station:LUMCON:103:1,2011-02-10T20:00:00Z,30.1889,-90.1683,-9999.0,1.357,1111122 
LUMCON,ioos:station:LUMCON:103:1,2011-02-10T21:00:00Z,30.1889,-90.1683,-9999.0,1.418,1111122 
LUMCON,ioos:station:LUMCON:103:1,2011-02-10T22:00:00Z,30.1889,-90.1683,-9999.0,1.584,1111122 
LUMCON,ioos:station:LUMCON:103:1,2011-02-10T23:00:00Z,30.1889,-90.1683,-9999.0,1.592,1111122 
LUMCON,ioos:station:LUMCON:103:1,2011-02-10T24:00:00Z,30.1889,-90.1683,-9999.0,1.573,1111122 
LUMCON,ioos:station:LUMCON:103:1,2011-02-11T01:00:00Z,30.1889,-90.1683,-9999.0,1.559,1111122 
LUMCON,ioos:station:LUMCON:103:1,2011-02-11T02:00:00Z,30.1889,-90.1683,-9999.0,1.564,1111122 
LUMCON,ioos:station:LUMCON:103:1,2011-02-11T03:00:00Z,30.1889,-90.1683,-9999.0,1.859,1111122 
LUMCON,ioos:station:LUMCON:103:1,2011-02-11T04:00:00Z,30.1889,-90.1683,-9999.0,2.452,1111122 
LUMCON,ioos:station:LUMCON:103:1,2011-02-11T05:00:00Z,30.1889,-90.1683,-9999.0,2.48,1111122 
LUMCON,ioos:station:LUMCON:103:1,2011-02-11T06:00:00Z,30.1889,-90.1683,-9999.0,2.54,1111122 
LUMCON,ioos:station:LUMCON:103:1,2011-02-11T07:00:00Z,30.1889,-90.1683,-9999.0,2.614,1111122 
LUMCON,ioos:station:LUMCON:103:1,2011-02-11T08:00:00Z,30.1889,-90.1683,-9999.0,2.104,1111122 
LUMCON,ioos:station:LUMCON:103:1,2011-02-11T09:00:00Z,30.1889,-90.1683,-9999.0,1.593,1111122 
LUMCON,ioos:station:LUMCON:103:1,2011-02-11T10:00:00Z,30.1889,-90.1683,-9999.0,1.538,1111122 
LUMCON,ioos:station:LUMCON:103:1,2011-02-11T11:00:00Z,30.1889,-90.1683,-9999.0,1.555,1111122 
LUMCON,ioos:station:LUMCON:103:1,2011-02-11T12:00:00Z,30.1889,-90.1683,-9999.0,1.53,1111122 
LUMCON,ioos:station:LUMCON:103:1,2011-02-11T13:00:00Z,30.1889,-90.1683,-9999.0,1.519,1111122 
LUMCON,ioos:station:LUMCON:103:1,2011-02-11T14:00:00Z,30.1889,-90.1683,-9999.0,1.53,1111122 